[[{"header":{"parameterUnit":"m.s-1","parameterCategory":1,"la1":30.2991,"la2":30.254,"lo1":-89.0895,"lo2":-89.0444,"dy":0.0017,"dx":0.0017,"nx":28,"ny":28,"refTime":"2023-08-04T09:00:00:Z","depth":0,"parameterNumber":2,"parameterNumberName":"U-component_of_WINDS"},"data":[0,0,0,0,0,0,0,0,0,0,0,0,0,0,0,0,0,0,0,0,0,0,0,0,0,0,0,0,0,0,0,0,0,0,0,0,0,0,0,0,0,0,0,0,0,0,0,0,0,0,0,0,0,0,0,0,0,0,5.0246,5.0247,0,5.0376,5.0378,5.0379,5.0312,5.0309,5.0305,5.0302,5.0438,5.0444,5.0451,0,0,0,0,0,0,0,0,0,0,0,0,0,4.9939,4.9945,5.0246,5.0247,5.0249,5.0376,5.0378,5.038,5.0313,5.0309,5.0304,5.03,5.0435,5.0443,5.0452,0,0,0,0,0,0,0,0,0,0,0,0,0,5.0071,4.9947,5.0245,5.0231,5.0231,5.0376,5.0378,5.038,5.0314,5.0308,5.0303,5.0298,5.0433,5.0443,5.0453,5.062,0,0,5.0484,5.0488,0,0,0,0,0,0,0,0,5.0064,5.0083,5.0231,5.0232,5.0232,5.0323,5.0319,5.046,5.0315,5.0282,5.0302,5.0296,5.0404,5.0416,5.0452,5.0626,5.0632,5.0485,5.0491,5.0495,5.0498,0,0,0,0,0,0,0,5.0055,5.0077,5.0297,5.0234,5.0234,5.0218,5.0231,5.0346,5.0371,5.0285,5.028,5.0296,5.0403,5.0442,5.0454,5.0634,5.0485,5.0494,5.05,5.0504,5.0949,5.0954,0,0,0,0,0,0,5.0046,5.007,5.0293,5.0301,5.0134,5.0228,5.0242,5.0299,5.0369,5.0375,5.0301,5.0293,5.0427,5.0443,5.0459,5.0657,5.0495,5.0505,5.0511,5.0943,5.095,5.0956,0,0,0,0,0,0,5.004,5.0067,5.0288,5.0184,5.0211,5.0239,5.0303,5.0304,5.0343,5.0381,5.0385,5.0336,5.0424,5.0445,5.0579,5.0661,5.051,5.0519,5.0937,5.0945,5.0953,5.1055,0,0,0,0,0,0,5.0032,5.0065,5.0129,5.0186,5.0217,5.0406,5.0308,5.0311,5.0361,5.0352,5.0415,5.0421,5.0421,5.0564,5.059,5.0672,5.0527,5.0929,5.0941,5.0951,5.1045,5.1066,5.1085,0,0,0,0,0,5.0021,5.0153,5.0132,5.016,5.0297,5.0411,5.0429,5.0426,5.0368,5.0432,5.0456,5.0419,5.0648,5.0579,5.0607,5.0693,5.0924,5.0937,5.095,5.1036,5.1062,5.1084,0,0,0,0,0,0,5.0106,5.0161,5.0138,5.0293,5.0348,5.04,5.048,5.0454,5.0527,5.0515,5.0509,5.0524,5.0663,5.0692,5.0614,5.0857,5.0777,5.0796,5.0833,5.0858,5.0878,5.0867,5.0535,0,0,0,0,0,5.0143,5.0231,5.0274,5.0406,5.0435,5.0453,5.0503,5.0496,5.0552,5.0575,5.0609,5.0666,5.075,5.0806,5.0887,5.1049,5.1061,5.1122,5.1142,5.1159,5.1174,5.126,5.1287,5.0998,5.0998,5.0998,0,0,5.022,5.026,5.0316,5.0425,5.0466,5.0557,5.0473,5.0573,5.064,5.0591,5.0719,5.0746,5.0809,5.0958,5.1025,5.0986,5.1257,5.1175,5.1187,5.1195,5.1276,5.1303,5.1328,5.1007,5.1005,5.1004,0,0,5.0405,5.0446,5.0559,5.0603,5.0666,5.0677,5.0704,5.076,5.0776,5.0905,5.0869,5.0949,5.1095,5.114,5.1183,5.1384,5.1353,5.1411,5.1514,5.1598,5.1621,5.1641,5.171,5.1736,5.1427,5.1427,5.1428,0,5.0493,5.0628,5.0622,5.0724,5.0771,5.073,5.0844,5.0887,5.0974,5.1008,5.0963,5.1144,5.1184,5.1341,5.139,5.1427,5.1456,5.1403,5.1618,5.1638,5.1657,5.1723,5.1749,5.1434,5.1433,5.1432,5.1432,0,5.0731,5.0825,5.0909,5.0992,5.105,5.1158,5.1168,5.1227,5.1215,5.1231,5.1361,5.1407,5.1495,5.1532,5.1522,5.1688,5.1661,5.1618,5.1537,5.1691,5.1753,5.1778,5.1443,5.1441,5.1439,5.1437,0,0,5.0974,5.1051,5.1082,5.1118,5.1185,5.1257,5.1363,5.1447,5.1497,5.1559,5.1646,5.177,5.1729,5.1778,5.1772,5.1846,5.1999,5.1793,5.1794,5.1827,5.2183,5.2213,5.2243,5.198,5.1984,5.1988,5.2176,0,5.1162,5.1346,5.1343,5.1513,5.1599,5.156,5.1652,5.1703,5.172,5.1795,5.1815,5.1902,5.1843,5.1871,5.1942,5.1966,5.207,5.1952,5.206,5.2063,5.2042,5.2276,5.2309,5.2485,5.2201,5.2205,5.2208,0,5.1406,5.1474,5.1652,5.1704,5.174,5.1822,5.1898,5.1971,5.2028,5.2035,5.2088,5.207,5.2177,5.2094,5.2241,5.216,5.2204,5.2222,5.2229,5.2237,5.2144,5.2288,5.2541,5.2566,5.2247,5.2244,5.2241,0,5.1562,5.1698,5.1821,5.1854,5.1919,5.1977,5.2007,5.2058,5.2108,5.2175,5.2207,5.2287,5.2329,5.2391,5.2395,5.2335,5.2542,5.246,5.255,5.255,5.2593,5.259,5.2854,5.2626,5.2626,5.2625,5.2625,0,5.1771,5.1881,5.1892,5.1968,5.209,5.2085,5.2206,5.223,5.2276,5.2355,5.2328,5.2403,5.2405,5.2482,5.2486,5.2605,5.2626,5.2634,5.2633,5.2635,5.2634,5.2662,5.2649,5.2632,5.2631,5.2629,5.2628,0,5.1965,5.1977,5.2109,5.2158,5.2173,5.2261,5.2303,5.2375,5.2389,5.249,5.2514,5.2537,5.2626,5.2636,5.2741,5.2743,5.2886,5.2874,5.2866,5.2864,5.2952,5.2942,5.3241,5.3279,5.3029,5.3031,5.3033,0,5.2097,5.218,5.2238,5.2289,5.2321,5.2404,5.2454,5.2453,5.2507,5.2576,5.264,5.2726,5.2794,5.2938,5.2964,5.3043,5.3031,5.3131,5.3043,5.3041,5.303,5.3024,5.3031,5.3147,5.315,5.3152,5.3154,0,5.2328,5.2329,5.2403,5.2479,5.2539,5.2599,5.2655,5.2699,5.2704,5.2766,5.2856,5.2909,5.3014,5.3099,5.3177,5.3208,5.3182,5.3181,5.3206,5.3207,5.3198,5.3202,5.291,5.3174,5.3172,5.3171,5.317,5.3169,5.2493,5.2564,5.2615,5.2698,5.274,5.2792,5.2861,5.2884,5.2959,5.3043,5.3039,5.3137,5.319,5.3291,5.3327,5.3404,5.3371,5.3408,5.3416,5.3424,5.3432,5.3188,5.3419,5.3418,5.3418,5.3417,5.3417,0,5.272,5.2751,5.2827,5.2905,5.297,5.294,5.3,5.3055,5.3142,5.3193,5.3261,5.3363,5.3445,5.3477,5.3558,5.3613,5.3603,5.3634,5.3628,5.3635,5.3458,5.3428,5.364,5.364,5.364,5.364,5.364,5.364,5.2846,5.2964,5.2972,5.311,5.314,5.3235,5.3272,5.332,5.336,5.3475,5.3542,5.3563,5.3606,5.3689,5.3762,5.377,5.3799,5.3835,5.3837,5.3671,5.3648,5.3626,5.3598,5.3842,5.3843,5.4007,5.4009,5.401]},{"header":{"parameterUnit":"m.s-1","parameterCategory":1,"la1":30.2991,"la2":30.254,"lo1":-89.0895,"lo2":-89.0444,"dy":0.0017,"dx":0.0017,"nx":28,"ny":28,"refTime":"2023-08-04T09:00:00:Z","depth":0,"parameterNumber":3,"parameterNumberName":"V-component_of_WINDS"},"data":[0,0,0,0,0,0,0,0,0,0,0,0,0,0,0,0,0,0,0,0,0,0,0,0,0,0,0,0,0,0,0,0,0,0,0,0,0,0,0,0,0,0,0,0,0,0,0,0,0,0,0,0,0,0,0,0,0,0,1.73,1.7301,0,1.7406,1.7407,1.7408,1.7416,1.7414,1.7413,1.7412,1.7522,1.7526,1.753,0,0,0,0,0,0,0,0,0,0,0,0,0,1.7105,1.7109,1.73,1.7301,1.7303,1.7406,1.7407,1.7409,1.7416,1.7414,1.7413,1.7412,1.7521,1.7526,1.7531,0,0,0,0,0,0,0,0,0,0,0,0,0,1.7198,1.711,1.73,1.7319,1.7321,1.7406,1.7407,1.7409,1.7416,1.7414,1.7413,1.7411,1.7519,1.7525,1.7531,1.7605,0,0,1.755,1.7552,0,0,0,0,0,0,0,0,1.7193,1.7205,1.7315,1.7317,1.7321,1.7396,1.7379,1.7475,1.7417,1.738,1.7412,1.741,1.7482,1.7491,1.7515,1.761,1.7614,1.755,1.7554,1.7557,1.7558,0,0,0,0,0,0,0,1.7186,1.7201,1.7342,1.7316,1.732,1.7322,1.7333,1.7397,1.744,1.7383,1.7384,1.7396,1.7483,1.7509,1.7517,1.7616,1.755,1.7556,1.7559,1.7562,1.7776,1.7778,0,0,0,0,0,0,1.7176,1.7195,1.7339,1.7345,1.7251,1.7327,1.734,1.7373,1.7439,1.7447,1.7398,1.7396,1.7499,1.751,1.7521,1.7611,1.7557,1.7562,1.7566,1.7774,1.7777,1.7779,0,0,0,0,0,0,1.7172,1.7189,1.7334,1.7271,1.7289,1.7332,1.737,1.7377,1.7402,1.745,1.7458,1.7416,1.7498,1.7513,1.7584,1.7615,1.7565,1.7571,1.7772,1.7775,1.7778,1.7792,0,0,0,0,0,0,1.7166,1.7187,1.7215,1.7271,1.7293,1.7395,1.7372,1.738,1.7412,1.7412,1.7469,1.7477,1.7498,1.7575,1.759,1.7623,1.7575,1.7769,1.7773,1.7777,1.7789,1.7795,1.7801,0,0,0,0,0,1.7159,1.7216,1.7217,1.7234,1.7329,1.7397,1.7409,1.7431,1.7415,1.7444,1.7474,1.7475,1.7609,1.7582,1.7599,1.7634,1.7767,1.7772,1.7777,1.7787,1.7794,1.7801,0,0,0,0,0,0,1.7163,1.7223,1.7225,1.7301,1.7344,1.7398,1.7435,1.7439,1.7487,1.7484,1.751,1.7523,1.7594,1.7621,1.7589,1.7709,1.7687,1.7695,1.7688,1.7696,1.7702,1.7694,1.758,0,0,0,0,0,1.7173,1.7223,1.7273,1.7335,1.7356,1.7391,1.7422,1.7435,1.7481,1.7499,1.7535,1.7579,1.7631,1.7665,1.7715,1.7793,1.7806,1.7826,1.7831,1.7836,1.7843,1.7886,1.7896,1.7794,1.7794,1.7794,0,0,1.7194,1.7232,1.7262,1.7337,1.7371,1.7422,1.7407,1.7462,1.75,1.7507,1.7577,1.7604,1.7655,1.773,1.7765,1.7755,1.7874,1.7842,1.7845,1.785,1.7892,1.7901,1.791,1.7797,1.7797,1.7796,0,0,1.7258,1.7292,1.7347,1.7382,1.7434,1.7457,1.747,1.7524,1.7542,1.7612,1.7618,1.7664,1.7753,1.779,1.782,1.7896,1.7899,1.7912,1.7943,1.7984,1.7992,1.7999,1.8027,1.8037,1.7919,1.7919,1.7919,0,1.7277,1.7354,1.7375,1.743,1.7463,1.7471,1.7527,1.756,1.7626,1.7648,1.7636,1.7748,1.7783,1.7866,1.7885,1.7909,1.7925,1.7906,1.7989,1.7997,1.8004,1.803,1.8041,1.792,1.792,1.792,1.7919,0,1.7375,1.7429,1.7467,1.753,1.7567,1.7622,1.7652,1.7687,1.7697,1.7721,1.7792,1.7834,1.7893,1.7914,1.7924,1.7998,1.7991,1.7984,1.7962,1.8014,1.804,1.805,1.7922,1.7921,1.7921,1.7921,0,0,1.7446,1.7519,1.7533,1.7561,1.7619,1.7661,1.7716,1.7773,1.7803,1.7848,1.7896,1.797,1.7964,1.7998,1.8013,1.8049,1.8107,1.8038,1.8039,1.8049,1.8192,1.8197,1.8208,1.8109,1.8111,1.8113,1.8187,0,1.7516,1.7615,1.7636,1.7721,1.7771,1.7779,1.7827,1.7868,1.7892,1.7938,1.7965,1.8018,1.8005,1.8026,1.8062,1.8092,1.8136,1.8087,1.8154,1.8156,1.8142,1.8222,1.8228,1.8297,1.8198,1.8199,1.82,0,1.7612,1.7659,1.7749,1.78,1.7821,1.7865,1.7918,1.7962,1.8008,1.8023,1.8061,1.8071,1.813,1.8105,1.8186,1.8152,1.8181,1.82,1.8203,1.8211,1.8182,1.8232,1.8319,1.8329,1.8216,1.8215,1.8214,0,1.7655,1.774,1.7805,1.7829,1.789,1.792,1.7947,1.7991,1.8024,1.8071,1.8093,1.8146,1.8176,1.8217,1.8242,1.8221,1.8321,1.8298,1.8336,1.8335,1.8357,1.8356,1.845,1.8374,1.8374,1.8374,1.8374,0,1.7732,1.7787,1.7825,1.7865,1.7927,1.795,1.8011,1.8038,1.8077,1.8123,1.8133,1.8176,1.8205,1.8252,1.8272,1.8336,1.8349,1.8364,1.8368,1.8363,1.8361,1.8383,1.8379,1.8377,1.8376,1.8376,1.8375,0,1.7791,1.7818,1.789,1.7941,1.7955,1.7998,1.8042,1.8082,1.8105,1.8163,1.8178,1.8216,1.8272,1.83,1.837,1.8383,1.8456,1.8457,1.844,1.8442,1.8478,1.8475,1.859,1.8607,1.8519,1.852,1.8521,0,1.7838,1.7881,1.7936,1.7967,1.7994,1.8044,1.8077,1.8101,1.8136,1.8191,1.8224,1.828,1.8326,1.8415,1.8449,1.8503,1.8506,1.8543,1.8514,1.8508,1.8507,1.8505,1.8509,1.8548,1.8549,1.855,1.855,0,1.792,1.7931,1.7979,1.8031,1.807,1.8113,1.8154,1.8179,1.821,1.8248,1.8305,1.8341,1.8412,1.8467,1.8523,1.8551,1.8556,1.8559,1.857,1.8566,1.8554,1.8562,1.8454,1.8556,1.8556,1.8555,1.8555,1.8555,1.7975,1.8013,1.8058,1.811,1.8144,1.8183,1.8222,1.825,1.8298,1.8357,1.8368,1.8429,1.8474,1.8549,1.8578,1.8626,1.8618,1.8635,1.864,1.8644,1.8645,1.8546,1.8636,1.8636,1.8636,1.8636,1.8636,0,1.8058,1.8086,1.8134,1.8192,1.8233,1.8233,1.8279,1.8314,1.8367,1.8408,1.8453,1.8518,1.8572,1.861,1.8665,1.8696,1.87,1.871,1.8708,1.8714,1.8649,1.8634,1.8706,1.8706,1.8706,1.8706,1.8706,1.8706,1.8105,1.817,1.8186,1.8267,1.8296,1.8355,1.8381,1.8417,1.845,1.8522,1.8567,1.8591,1.8631,1.8689,1.8738,1.8748,1.8768,1.8778,1.8788,1.8726,1.8719,1.8712,1.8698,1.8782,1.8782,1.8849,1.885,1.885]}]]